VTD146 UZSB-UTAA

Flight info

Callsign VTD146
Flight time 2h 16m
Altitude 16000
Route REGMO T388 POGON B114 BUROT
Aircraft DA42/L-SDEFGRY/C

Departure

Time 2026-04-14 12:50
Airport Bukhara International Airport (UZSB)

Arrival

Time 2026-04-14 15:06
Airport Ashgabat International Airport (UTAA)
Time Latitude Longitude Altitude Speed Heading
2026-04-14 12:35 39.76667 64.47655 749 ft 0 kts 191°
2026-04-14 12:43 39.76640 64.47656 748 ft 9 kts 153°
2026-04-14 12:43 39.76623 64.47696 749 ft 10 kts 102°
2026-04-14 12:44 39.76654 64.47809 750 ft 11 kts 67°
2026-04-14 12:44 39.76651 64.47871 750 ft 0 kts 100°
2026-04-14 12:46 39.76650 64.47875 750 ft 3 kts 102°
2026-04-14 12:46 39.76639 64.47967 751 ft 14 kts 87°
2026-04-14 12:46 39.76719 64.48038 749 ft 17 kts 16°
2026-04-14 12:46 39.76847 64.48070 751 ft 21 kts 10°
2026-04-14 12:47 39.77005 64.48106 749 ft 25 kts 11°
2026-04-14 12:47 39.77172 64.48146 751 ft 24 kts 11°
2026-04-14 12:47 39.77329 64.48183 749 ft 22 kts 11°
2026-04-14 12:47 39.77480 64.48217 753 ft 21 kts
2026-04-14 12:48 39.77602 64.48264 752 ft 12 kts 33°
2026-04-14 12:48 39.77609 64.48241 752 ft 7 kts 156°
2026-04-14 12:48 39.77593 64.48244 750 ft 0 kts 190°
2026-04-14 12:49 39.77545 64.48233 753 ft 29 kts 189°
2026-04-14 12:49 39.77170 64.48145 751 ft 77 kts 190°
2026-04-14 12:49 39.76576 64.48014 888 ft 90 kts 188°
2026-04-14 12:49 39.75960 64.47851 1298 ft 90 kts 190°
2026-04-14 12:50 39.75323 64.47713 1637 ft 94 kts 188°
2026-04-14 12:50 39.74016 64.47418 2206 ft 93 kts 187°
2026-04-14 12:50 39.73383 64.47274 2481 ft 94 kts 188°
2026-04-14 12:51 39.72738 64.47124 2783 ft 93 kts 188°
2026-04-14 12:51 39.72098 64.46973 3059 ft 94 kts 188°
2026-04-14 12:51 39.71458 64.46824 3413 ft 93 kts 189°
2026-04-14 12:51 39.70807 64.46669 3715 ft 96 kts 190°
2026-04-14 12:52 39.70184 64.46380 4065 ft 96 kts 211°
2026-04-14 12:52 39.69752 64.45703 4397 ft 101 kts 241°
2026-04-14 12:52 39.69665 64.44776 4707 ft 108 kts 275°
2026-04-14 12:52 39.69792 64.43824 5020 ft 109 kts 276°
2026-04-14 12:53 39.69930 64.42851 5314 ft 110 kts 274°
2026-04-14 12:53 39.70065 64.41879 5612 ft 109 kts 275°
2026-04-14 12:53 39.70200 64.40914 5930 ft 108 kts 275°
2026-04-14 12:53 39.70335 64.39950 6244 ft 108 kts 275°
2026-04-14 12:54 39.70468 64.38989 6526 ft 108 kts 275°
2026-04-14 12:54 39.70602 64.38030 6820 ft 108 kts 274°
2026-04-14 12:54 39.70703 64.37067 7097 ft 108 kts 272°
2026-04-14 12:54 39.70814 64.36106 7385 ft 107 kts 272°
2026-04-14 12:55 39.70925 64.35148 7656 ft 107 kts 272°
2026-04-14 12:55 39.71033 64.34190 7938 ft 108 kts 272°
2026-04-14 12:55 39.71142 64.33228 8221 ft 108 kts 271°
2026-04-14 12:55 39.71249 64.32267 8502 ft 107 kts 271°
2026-04-14 12:56 39.71354 64.31312 8796 ft 107 kts 271°
2026-04-14 12:56 39.71460 64.30361 9088 ft 106 kts 271°
2026-04-14 12:56 39.71565 64.29414 9379 ft 106 kts 270°
2026-04-14 12:56 39.71669 64.28476 9663 ft 106 kts 270°
2026-04-14 12:57 39.71774 64.27531 9929 ft 106 kts 270°
2026-04-14 12:57 39.71878 64.26586 10191 ft 106 kts 270°
2026-04-14 12:57 39.71983 64.25641 10455 ft 106 kts 270°
2026-04-14 12:57 39.72087 64.24696 10720 ft 106 kts 270°
2026-04-14 12:58 39.72191 64.23746 10984 ft 106 kts 270°
2026-04-14 12:58 39.72297 64.22796 11261 ft 106 kts 270°
2026-04-14 12:58 39.72402 64.21839 11523 ft 107 kts 270°
2026-04-14 12:58 39.72508 64.20877 11785 ft 108 kts 270°
2026-04-14 12:59 39.72614 64.19914 12064 ft 108 kts 270°
2026-04-14 12:59 39.72720 64.18949 12339 ft 108 kts 270°
2026-04-14 12:59 39.72827 64.17981 12604 ft 108 kts 270°
2026-04-14 12:59 39.72933 64.17014 12876 ft 108 kts 270°
2026-04-14 13:00 39.73039 64.16043 13139 ft 109 kts 270°
2026-04-14 13:00 39.73147 64.15065 13405 ft 109 kts 270°
2026-04-14 13:00 39.73254 64.14088 13669 ft 110 kts 270°
2026-04-14 13:00 39.73360 64.13119 13909 ft 110 kts 270°
2026-04-14 13:01 39.73467 64.12135 14157 ft 110 kts 270°
2026-04-14 13:01 39.73575 64.11155 14403 ft 110 kts 270°
2026-04-14 13:01 39.73682 64.10173 14641 ft 110 kts 270°
2026-04-14 13:01 39.73789 64.09193 14882 ft 110 kts 270°
2026-04-14 13:02 39.73896 64.08212 15126 ft 109 kts 270°
2026-04-14 13:02 39.74003 64.07231 15353 ft 110 kts 270°
2026-04-14 13:02 39.74110 64.06246 15589 ft 110 kts 270°
2026-04-14 13:02 39.74216 64.05275 15816 ft 110 kts 270°
2026-04-14 13:03 39.74329 64.04208 15840 ft 128 kts 271°
2026-04-14 13:03 39.74461 64.02994 15835 ft 143 kts 271°
2026-04-14 13:03 39.74608 64.01661 15837 ft 153 kts 272°
2026-04-14 13:03 39.74762 64.00249 15832 ft 161 kts 272°
2026-04-14 13:04 39.74920 63.98788 15828 ft 166 kts 272°
2026-04-14 13:04 39.75080 63.97301 15830 ft 167 kts 272°
2026-04-14 13:04 39.75242 63.95803 15825 ft 167 kts 271°
2026-04-14 13:04 39.75403 63.94302 15822 ft 167 kts 271°
2026-04-14 13:05 39.75564 63.92805 15825 ft 167 kts 271°
2026-04-14 13:05 39.75725 63.91306 15826 ft 167 kts 271°
2026-04-14 13:05 39.75886 63.89809 15829 ft 167 kts 271°
2026-04-14 13:05 39.76046 63.88312 15832 ft 167 kts 271°
2026-04-14 13:06 39.76207 63.86814 15827 ft 168 kts 271°
2026-04-14 13:06 39.76367 63.85313 15828 ft 168 kts 271°
2026-04-14 13:06 39.76526 63.83830 15832 ft 168 kts 271°
2026-04-14 13:06 39.76688 63.82308 15832 ft 168 kts 271°
2026-04-14 13:07 39.76846 63.80823 15830 ft 168 kts 271°
2026-04-14 13:07 39.77006 63.79320 15832 ft 168 kts 271°
2026-04-14 13:07 39.77166 63.77814 15831 ft 168 kts 271°
2026-04-14 13:07 39.77326 63.76314 15832 ft 168 kts 271°
2026-04-14 13:08 39.77485 63.74808 15833 ft 168 kts 270°
2026-04-14 13:08 39.77645 63.73304 15834 ft 168 kts 270°
2026-04-14 13:08 39.77804 63.71799 15830 ft 168 kts 270°
2026-04-14 13:08 39.77961 63.70315 15832 ft 168 kts 270°
2026-04-14 13:09 39.78119 63.68812 15832 ft 168 kts 270°
2026-04-14 13:09 39.78278 63.67309 15828 ft 168 kts 270°
2026-04-14 13:09 39.78435 63.65809 15830 ft 168 kts 270°
2026-04-14 13:09 39.78593 63.64308 15831 ft 168 kts 270°
2026-04-14 13:10 39.78751 63.62803 15831 ft 168 kts 270°
2026-04-14 13:10 39.78909 63.61298 15828 ft 168 kts 270°
2026-04-14 13:10 39.79067 63.59790 15829 ft 168 kts 270°
2026-04-14 13:10 39.79224 63.58287 15830 ft 167 kts 270°
2026-04-14 13:11 39.79381 63.56783 15831 ft 167 kts 270°
2026-04-14 13:11 39.79535 63.55304 15830 ft 167 kts 270°
2026-04-14 13:11 39.79692 63.53803 15828 ft 168 kts 270°
2026-04-14 13:11 39.79848 63.52299 15829 ft 168 kts 270°
2026-04-14 13:12 39.80005 63.50792 15829 ft 168 kts 270°
2026-04-14 13:12 39.80161 63.49284 15829 ft 168 kts 269°
2026-04-14 13:12 39.80318 63.47773 15830 ft 168 kts 269°
2026-04-14 13:12 39.80474 63.46263 15826 ft 168 kts 269°
2026-04-14 13:13 39.80630 63.44754 15826 ft 168 kts 269°
2026-04-14 13:13 39.80785 63.43249 15827 ft 168 kts 269°
2026-04-14 13:13 39.80941 63.41740 15832 ft 168 kts 269°
2026-04-14 13:13 39.81096 63.40230 15828 ft 168 kts 269°
2026-04-14 13:14 39.81252 63.38719 15828 ft 169 kts 269°
2026-04-14 13:14 39.81407 63.37207 15830 ft 169 kts 269°
2026-04-14 13:14 39.81562 63.35694 15827 ft 169 kts 269°
2026-04-14 13:14 39.81717 63.34183 15838 ft 169 kts 269°
2026-04-14 13:15 39.81870 63.32687 15831 ft 169 kts 269°
2026-04-14 13:15 39.82027 63.31152 15829 ft 169 kts 269°
2026-04-14 13:15 39.82179 63.29661 15829 ft 169 kts 269°
2026-04-14 13:15 39.82333 63.28146 15828 ft 169 kts 269°
2026-04-14 13:16 39.82486 63.26634 15829 ft 168 kts 268°
2026-04-14 13:16 39.82553 63.25129 15828 ft 167 kts 264°
2026-04-14 13:16 39.82610 63.23618 15838 ft 167 kts 264°
2026-04-14 13:16 39.82666 63.22113 15833 ft 167 kts 264°
2026-04-14 13:17 39.82722 63.20606 15833 ft 167 kts 264°
2026-04-14 13:17 39.82778 63.19096 15833 ft 167 kts 264°
2026-04-14 13:17 39.82834 63.17589 15833 ft 167 kts 264°
2026-04-14 13:17 39.82890 63.16087 15836 ft 166 kts 264°
2026-04-14 13:18 39.82945 63.14584 15839 ft 166 kts 263°
2026-04-14 13:18 39.83000 63.13084 15837 ft 166 kts 263°
2026-04-14 13:18 39.83055 63.11581 15837 ft 166 kts 263°
2026-04-14 13:18 39.83110 63.10081 15838 ft 166 kts 263°
2026-04-14 13:19 39.83164 63.08577 15838 ft 166 kts 263°
2026-04-14 13:19 39.83218 63.07092 15837 ft 166 kts 263°
2026-04-14 13:19 39.83273 63.05569 15845 ft 166 kts 263°
2026-04-14 13:19 39.83326 63.04085 15845 ft 166 kts 263°
2026-04-14 13:20 39.83380 63.02583 15845 ft 166 kts 263°
2026-04-14 13:20 39.83434 63.01084 15844 ft 166 kts 263°
2026-04-14 13:20 39.83487 62.99582 15844 ft 166 kts 263°
2026-04-14 13:20 39.83540 62.98085 15844 ft 166 kts 263°
2026-04-14 13:21 39.83593 62.96590 15852 ft 166 kts 263°
2026-04-14 13:21 39.83646 62.95090 15851 ft 166 kts 263°
2026-04-14 13:21 39.83698 62.93593 15850 ft 166 kts 262°
2026-04-14 13:21 39.83751 62.92095 15851 ft 166 kts 262°
2026-04-14 13:22 39.83802 62.90599 15853 ft 166 kts 262°
2026-04-14 13:22 39.83854 62.89100 15858 ft 166 kts 262°
2026-04-14 13:22 39.83906 62.87599 15857 ft 166 kts 262°
2026-04-14 13:22 39.83958 62.86101 15856 ft 166 kts 262°
2026-04-14 13:23 39.84009 62.84601 15857 ft 166 kts 262°
2026-04-14 13:23 39.84061 62.83102 15862 ft 166 kts 262°
2026-04-14 13:23 39.84111 62.81620 15862 ft 166 kts 262°
2026-04-14 13:23 39.84162 62.80121 15859 ft 166 kts 262°
2026-04-14 13:24 39.84212 62.78617 15862 ft 166 kts 262°
2026-04-14 13:24 39.84294 62.75617 15865 ft 163 kts 257°
2026-04-14 13:24 39.84102 62.74199 15866 ft 156 kts 244°
2026-04-14 13:25 39.83687 62.72917 15867 ft 153 kts 237°
2026-04-14 13:25 39.83237 62.71661 15867 ft 153 kts 237°
2026-04-14 13:26 39.81889 62.67904 15877 ft 153 kts 237°
2026-04-14 13:26 39.81439 62.66652 15870 ft 153 kts 237°
2026-04-14 13:26 39.80990 62.65402 15879 ft 153 kts 237°
2026-04-14 13:26 39.80541 62.64151 15880 ft 153 kts 237°
2026-04-14 13:27 39.80092 62.62902 15880 ft 152 kts 237°
2026-04-14 13:27 39.79643 62.61653 15883 ft 152 kts 237°
2026-04-14 13:27 39.79195 62.60406 15885 ft 152 kts 237°
2026-04-14 13:27 39.78747 62.59161 15887 ft 152 kts 237°
2026-04-14 13:28 39.78298 62.57915 15888 ft 152 kts 237°
2026-04-14 13:28 39.77848 62.56664 15888 ft 152 kts 237°
2026-04-14 13:28 39.77399 62.55418 15891 ft 152 kts 237°
2026-04-14 13:28 39.76955 62.54186 15897 ft 152 kts 237°
2026-04-14 13:29 39.76505 62.52939 15893 ft 152 kts 237°
2026-04-14 13:29 39.76056 62.51692 15893 ft 152 kts 237°
2026-04-14 13:29 39.75606 62.50445 15894 ft 152 kts 237°
2026-04-14 13:29 39.75155 62.49197 15900 ft 152 kts 237°
2026-04-14 13:30 39.74706 62.47953 15901 ft 152 kts 237°
2026-04-14 13:30 39.74256 62.46710 15901 ft 152 kts 237°
2026-04-14 13:30 39.73807 62.45464 15906 ft 152 kts 236°
2026-04-14 13:30 39.73356 62.44220 15906 ft 152 kts 236°
2026-04-14 13:31 39.72906 62.42974 15905 ft 152 kts 236°
2026-04-14 13:31 39.72460 62.41743 15908 ft 152 kts 236°
2026-04-14 13:31 39.72009 62.40496 15911 ft 153 kts 236°
2026-04-14 13:31 39.71555 62.39245 15905 ft 153 kts 236°
2026-04-14 13:32 39.71102 62.37993 15908 ft 153 kts 236°
2026-04-14 13:32 39.70648 62.36741 15909 ft 153 kts 236°
2026-04-14 13:32 39.70194 62.35490 15911 ft 153 kts 236°
2026-04-14 13:32 39.69892 62.34659 15912 ft 154 kts 236°
2026-04-14 13:33 39.69437 62.33403 15917 ft 154 kts 236°
2026-04-14 13:33 39.68982 62.32151 15916 ft 153 kts 236°
2026-04-14 13:33 39.68529 62.30903 15918 ft 153 kts 236°
2026-04-14 13:33 39.68074 62.29651 15920 ft 153 kts 236°
2026-04-14 13:34 39.67166 62.27153 15923 ft 153 kts 236°
2026-04-14 13:34 39.66711 62.25905 15926 ft 153 kts 236°
2026-04-14 13:34 39.66256 62.24654 15927 ft 153 kts 236°
2026-04-14 13:35 39.65800 62.23402 15928 ft 153 kts 236°
2026-04-14 13:35 39.65350 62.22166 15934 ft 153 kts 236°
2026-04-14 13:35 39.64895 62.20918 15931 ft 153 kts 236°
2026-04-14 13:35 39.64440 62.19669 15932 ft 153 kts 236°
2026-04-14 13:36 39.63986 62.18425 15936 ft 153 kts 236°
2026-04-14 13:36 39.63531 62.17179 15937 ft 152 kts 236°
2026-04-14 13:36 39.63077 62.15936 15937 ft 153 kts 236°
2026-04-14 13:36 39.62623 62.14693 15937 ft 153 kts 236°
2026-04-14 13:37 39.62168 62.13447 15941 ft 153 kts 236°
2026-04-14 13:37 39.61712 62.12201 15937 ft 153 kts 236°
2026-04-14 13:37 39.61256 62.10955 15940 ft 152 kts 236°
2026-04-14 13:37 39.60801 62.09711 15943 ft 152 kts 236°
2026-04-14 13:38 39.60353 62.08488 15945 ft 152 kts 236°
2026-04-14 13:38 39.59900 62.07249 15948 ft 152 kts 236°
2026-04-14 13:38 39.59447 62.06013 15949 ft 152 kts 236°
2026-04-14 13:38 39.58993 62.04774 15948 ft 152 kts 236°
2026-04-14 13:39 39.58540 62.03538 15950 ft 152 kts 236°
2026-04-14 13:39 39.58086 62.02303 15956 ft 152 kts 236°
2026-04-14 13:39 39.57633 62.01068 15953 ft 152 kts 236°
2026-04-14 13:39 39.57180 61.99834 15955 ft 151 kts 236°
2026-04-14 13:40 39.56729 61.98605 15958 ft 151 kts 236°
2026-04-14 13:40 39.56279 61.97380 15956 ft 150 kts 236°
2026-04-14 13:40 39.55831 61.96161 15958 ft 150 kts 236°
2026-04-14 13:40 39.55384 61.94945 15960 ft 149 kts 236°
2026-04-14 13:41 39.54939 61.93736 15958 ft 149 kts 236°
2026-04-14 13:41 39.54499 61.92542 15957 ft 148 kts 236°
2026-04-14 13:41 39.54056 61.91337 15962 ft 148 kts 236°
2026-04-14 13:41 39.53614 61.90136 15964 ft 147 kts 236°
2026-04-14 13:42 39.53173 61.88940 15966 ft 147 kts 236°
2026-04-14 13:42 39.52732 61.87742 15964 ft 147 kts 236°
2026-04-14 13:42 39.52290 61.86546 15963 ft 147 kts 236°
2026-04-14 13:42 39.51850 61.85352 15965 ft 147 kts 236°
2026-04-14 13:43 39.51410 61.84161 15964 ft 146 kts 236°
2026-04-14 13:43 39.50972 61.82974 15970 ft 146 kts 236°
2026-04-14 13:43 39.50535 61.81791 15972 ft 145 kts 236°
2026-04-14 13:43 39.50101 61.80616 15972 ft 145 kts 236°
2026-04-14 13:44 39.49665 61.79437 15970 ft 145 kts 236°
2026-04-14 13:44 39.49228 61.78256 15969 ft 145 kts 236°
2026-04-14 13:44 39.48793 61.77079 15975 ft 145 kts 236°
2026-04-14 13:44 39.48358 61.75905 15972 ft 144 kts 236°
2026-04-14 13:45 39.47925 61.74735 15971 ft 144 kts 236°
2026-04-14 13:45 39.47495 61.73573 15977 ft 143 kts 236°
2026-04-14 13:45 39.47065 61.72412 15975 ft 143 kts 236°
2026-04-14 13:45 39.46636 61.71256 15975 ft 142 kts 236°
2026-04-14 13:46 39.46207 61.70101 15979 ft 142 kts 236°
2026-04-14 13:46 39.45784 61.68962 15977 ft 142 kts 235°
2026-04-14 13:46 39.45356 61.67809 15981 ft 142 kts 235°
2026-04-14 13:46 39.44929 61.66656 15981 ft 142 kts 235°
2026-04-14 13:47 39.44501 61.65505 15981 ft 142 kts 236°
2026-04-14 13:47 39.44073 61.64354 15986 ft 142 kts 236°
2026-04-14 13:47 39.43646 61.63202 15984 ft 141 kts 235°
2026-04-14 13:47 39.43220 61.62058 15980 ft 141 kts 235°
2026-04-14 13:48 39.42795 61.60915 15982 ft 141 kts 236°
2026-04-14 13:48 39.42370 61.59774 15980 ft 140 kts 235°
2026-04-14 13:48 39.41948 61.58639 15986 ft 140 kts 236°
2026-04-14 13:48 39.41530 61.57519 15987 ft 140 kts 236°
2026-04-14 13:49 39.41110 61.56389 15988 ft 139 kts 236°
2026-04-14 13:49 39.40690 61.55263 15988 ft 139 kts 236°
2026-04-14 13:49 39.40271 61.54139 15991 ft 139 kts 236°
2026-04-14 13:49 39.39852 61.53016 15990 ft 139 kts 236°
2026-04-14 13:50 39.39430 61.51887 15989 ft 139 kts 236°
2026-04-14 13:50 39.39010 61.50761 15989 ft 139 kts 236°
2026-04-14 13:50 39.38589 61.49633 15992 ft 139 kts 236°
2026-04-14 13:50 39.38167 61.48503 15991 ft 139 kts 236°
2026-04-14 13:51 39.37744 61.47374 15993 ft 140 kts 236°
2026-04-14 13:51 39.37319 61.46236 15990 ft 141 kts 236°
2026-04-14 13:51 39.36892 61.45096 15989 ft 141 kts 236°
2026-04-14 13:51 39.36465 61.43952 15994 ft 141 kts 236°
2026-04-14 13:52 39.36036 61.42808 15995 ft 142 kts 236°
2026-04-14 13:52 39.35606 61.41657 15998 ft 142 kts 236°
2026-04-14 13:52 39.35180 61.40520 15999 ft 142 kts 236°
2026-04-14 13:52 39.34748 61.39367 15998 ft 143 kts 236°
2026-04-14 13:53 39.34314 61.38209 16001 ft 143 kts 236°
2026-04-14 13:53 39.33878 61.37049 16002 ft 143 kts 236°
2026-04-14 13:53 39.33443 61.35889 15999 ft 144 kts 236°
2026-04-14 13:53 39.33007 61.34727 16002 ft 144 kts 236°
2026-04-14 13:54 39.32568 61.33557 16002 ft 145 kts 236°
2026-04-14 13:54 39.32129 61.32388 16006 ft 145 kts 236°
2026-04-14 13:54 39.31687 61.31212 16005 ft 146 kts 236°
2026-04-14 13:54 39.31245 61.30036 16004 ft 146 kts 237°
2026-04-14 13:55 39.30802 61.28858 16001 ft 146 kts 237°
2026-04-14 13:55 39.30359 61.27680 16002 ft 146 kts 237°
2026-04-14 13:55 39.29916 61.26502 16004 ft 146 kts 237°
2026-04-14 13:55 39.29477 61.25337 16004 ft 146 kts 237°
2026-04-14 13:56 39.29031 61.24153 16009 ft 147 kts 237°
2026-04-14 13:56 39.28584 61.22967 16007 ft 147 kts 237°
2026-04-14 13:56 39.28136 61.21778 16008 ft 147 kts 237°
2026-04-14 13:56 39.27690 61.20594 16009 ft 147 kts 237°
2026-04-14 13:57 39.27244 61.19410 16008 ft 147 kts 237°
2026-04-14 13:57 39.26795 61.18223 16009 ft 147 kts 237°
2026-04-14 13:57 39.26348 61.17037 16015 ft 147 kts 237°
2026-04-14 13:57 39.25900 61.15853 16015 ft 147 kts 237°
2026-04-14 13:58 39.25453 61.14668 16013 ft 147 kts 237°
2026-04-14 13:58 39.25011 61.13498 16015 ft 147 kts 237°
2026-04-14 13:58 39.24562 61.12311 16014 ft 147 kts 237°
2026-04-14 13:58 39.24114 61.11128 16014 ft 147 kts 237°
2026-04-14 13:59 39.23666 61.09943 16016 ft 147 kts 237°
2026-04-14 13:59 39.23217 61.08757 16018 ft 147 kts 237°
2026-04-14 13:59 39.22769 61.07573 16017 ft 147 kts 237°
2026-04-14 13:59 39.22318 61.06384 16015 ft 147 kts 237°
2026-04-14 14:00 39.21869 61.05198 16017 ft 147 kts 237°
2026-04-14 14:00 39.21419 61.04011 16018 ft 147 kts 237°
2026-04-14 14:00 39.20969 61.02825 16020 ft 147 kts 237°
2026-04-14 14:00 39.20525 61.01656 16017 ft 147 kts 237°
2026-04-14 14:01 39.20075 61.00471 16021 ft 147 kts 237°
2026-04-14 14:01 39.19626 60.99288 16023 ft 147 kts 237°
2026-04-14 14:01 39.19177 60.98105 16020 ft 147 kts 237°
2026-04-14 14:01 39.18726 60.96920 16018 ft 147 kts 237°
2026-04-14 14:02 39.18275 60.95734 16021 ft 147 kts 237°
2026-04-14 14:02 39.17824 60.94548 16015 ft 147 kts 237°
2026-04-14 14:02 39.17374 60.93365 16018 ft 147 kts 237°
2026-04-14 14:02 39.16941 60.92170 16019 ft 147 kts 238°
2026-04-14 14:03 39.16514 60.90988 16020 ft 147 kts 238°
2026-04-14 14:03 39.16083 60.89793 16015 ft 147 kts 238°
2026-04-14 14:03 39.15647 60.88580 16019 ft 147 kts 238°
2026-04-14 14:03 39.15222 60.87402 16023 ft 147 kts 238°
2026-04-14 14:04 39.14794 60.86212 16019 ft 146 kts 238°
2026-04-14 14:04 39.14365 60.85023 16024 ft 146 kts 238°
2026-04-14 14:04 39.13935 60.83831 16016 ft 146 kts 238°
2026-04-14 14:04 39.13507 60.82642 16017 ft 146 kts 238°
2026-04-14 14:05 39.13079 60.81457 16017 ft 146 kts 238°
2026-04-14 14:05 39.12651 60.80273 16017 ft 146 kts 238°
2026-04-14 14:05 39.12224 60.79088 16026 ft 145 kts 238°
2026-04-14 14:05 39.11804 60.77926 16026 ft 145 kts 238°
2026-04-14 14:06 39.11378 60.76747 16030 ft 145 kts 238°
2026-04-14 14:06 39.10952 60.75569 16027 ft 145 kts 239°
2026-04-14 14:06 39.10524 60.74387 16027 ft 145 kts 239°
2026-04-14 14:06 39.10098 60.73208 16027 ft 145 kts 239°
2026-04-14 14:07 39.09672 60.72032 16026 ft 145 kts 239°
2026-04-14 14:07 39.09246 60.70856 16028 ft 145 kts 239°
2026-04-14 14:07 39.08821 60.69681 16028 ft 145 kts 239°
2026-04-14 14:07 39.08395 60.68506 16027 ft 144 kts 239°
2026-04-14 14:08 39.07970 60.67335 16028 ft 144 kts 239°
2026-04-14 14:08 39.07545 60.66163 16031 ft 144 kts 239°
2026-04-14 14:08 39.07121 60.64994 16029 ft 144 kts 239°
2026-04-14 14:08 39.06698 60.63827 16031 ft 144 kts 239°
2026-04-14 14:09 39.06275 60.62662 16031 ft 143 kts 239°
2026-04-14 14:09 39.05853 60.61500 16032 ft 143 kts 239°
2026-04-14 14:09 39.05437 60.60355 16031 ft 143 kts 239°
2026-04-14 14:09 39.05015 60.59197 16032 ft 143 kts 239°
2026-04-14 14:10 39.04594 60.58037 16032 ft 143 kts 239°
2026-04-14 14:10 39.04172 60.56877 16029 ft 143 kts 239°
2026-04-14 14:10 39.03749 60.55716 16029 ft 143 kts 240°
2026-04-14 14:10 39.03328 60.54559 16031 ft 143 kts 240°
2026-04-14 14:11 39.02908 60.53406 16032 ft 142 kts 240°
2026-04-14 14:11 39.02487 60.52250 16035 ft 142 kts 240°
2026-04-14 14:11 39.02067 60.51100 16036 ft 142 kts 240°
2026-04-14 14:11 39.01648 60.49950 16032 ft 142 kts 240°
2026-04-14 14:12 39.01230 60.48805 16033 ft 141 kts 240°
2026-04-14 14:12 39.00814 60.47663 16034 ft 141 kts 240°
2026-04-14 14:12 39.00397 60.46523 16034 ft 141 kts 240°
2026-04-14 14:12 38.99986 60.45397 16033 ft 140 kts 240°
2026-04-14 14:13 38.99571 60.44261 16032 ft 141 kts 240°
2026-04-14 14:13 38.99156 60.43125 16031 ft 140 kts 241°
2026-04-14 14:13 38.98741 60.41991 16033 ft 140 kts 241°
2026-04-14 14:13 38.98328 60.40861 16036 ft 139 kts 241°
2026-04-14 14:14 38.97916 60.39733 16036 ft 139 kts 241°
2026-04-14 14:14 38.97504 60.38610 16036 ft 139 kts 241°
2026-04-14 14:14 38.97095 60.37492 16040 ft 138 kts 241°
2026-04-14 14:14 38.96685 60.36374 16037 ft 138 kts 241°
2026-04-14 14:15 38.96277 60.35261 16039 ft 138 kts 241°
2026-04-14 14:15 38.95869 60.34149 16040 ft 137 kts 242°
2026-04-14 14:15 38.95462 60.33039 16035 ft 137 kts 242°
2026-04-14 14:15 38.95057 60.31933 16039 ft 137 kts 242°
2026-04-14 14:16 38.94656 60.30840 16038 ft 137 kts 242°
2026-04-14 14:16 38.94251 60.29738 16039 ft 136 kts 242°
2026-04-14 14:16 38.93848 60.28640 16035 ft 136 kts 242°
2026-04-14 14:17 38.93043 60.26451 16038 ft 135 kts 242°
2026-04-14 14:17 38.92643 60.25362 16037 ft 135 kts 242°
2026-04-14 14:17 38.92243 60.24275 16037 ft 134 kts 242°
2026-04-14 14:17 38.91845 60.23193 16040 ft 134 kts 242°
2026-04-14 14:18 38.91446 60.22109 16038 ft 134 kts 242°
2026-04-14 14:18 38.91047 60.21026 16037 ft 134 kts 242°
2026-04-14 14:18 38.90650 60.19947 16039 ft 134 kts 243°
2026-04-14 14:18 38.90257 60.18882 16039 ft 133 kts 243°
2026-04-14 14:19 38.89855 60.17791 16040 ft 134 kts 243°
2026-04-14 14:19 38.89463 60.16728 16024 ft 134 kts 243°
2026-04-14 14:19 38.89063 60.15645 16042 ft 134 kts 243°
2026-04-14 14:19 38.88664 60.14562 16036 ft 134 kts 243°
2026-04-14 14:20 38.88263 60.13476 16038 ft 135 kts 243°
2026-04-14 14:20 38.87861 60.12389 16036 ft 135 kts 243°
2026-04-14 14:20 38.87595 60.11668 16047 ft 135 kts 243°
2026-04-14 14:20 38.87057 60.10212 16047 ft 135 kts 243°
2026-04-14 14:21 38.86791 60.09493 16046 ft 135 kts 243°
2026-04-14 14:21 38.86383 60.08388 15974 ft 139 kts 243°
2026-04-14 14:21 38.85965 60.07258 15898 ft 141 kts 243°
2026-04-14 14:21 38.85540 60.06112 15822 ft 143 kts 243°
2026-04-14 14:22 38.85113 60.04957 15751 ft 144 kts 243°
2026-04-14 14:22 38.84682 60.03794 15673 ft 145 kts 243°
2026-04-14 14:22 38.84249 60.02625 15600 ft 145 kts 243°
2026-04-14 14:22 38.83816 60.01456 15523 ft 145 kts 243°
2026-04-14 14:23 38.83382 60.00285 15452 ft 145 kts 243°
2026-04-14 14:23 38.82948 59.99115 15377 ft 145 kts 243°
2026-04-14 14:23 38.82514 59.97946 15305 ft 145 kts 243°
2026-04-14 14:23 38.82085 59.96792 15234 ft 145 kts 243°
2026-04-14 14:24 38.81650 59.95620 15162 ft 146 kts 243°
2026-04-14 14:24 38.81215 59.94448 15088 ft 146 kts 243°
2026-04-14 14:24 38.80779 59.93275 15012 ft 146 kts 243°
2026-04-14 14:24 38.80342 59.92101 14943 ft 146 kts 243°
2026-04-14 14:25 38.79904 59.90923 14871 ft 146 kts 243°
2026-04-14 14:25 38.79465 59.89743 14796 ft 146 kts 243°
2026-04-14 14:25 38.79025 59.88561 14730 ft 147 kts 243°
2026-04-14 14:25 38.78584 59.87378 14654 ft 147 kts 243°
2026-04-14 14:26 38.78144 59.86195 14580 ft 147 kts 243°
2026-04-14 14:26 38.77704 59.85014 14509 ft 147 kts 243°
2026-04-14 14:26 38.77262 59.83831 14439 ft 148 kts 243°
2026-04-14 14:26 38.76825 59.82658 14367 ft 148 kts 243°
2026-04-14 14:27 38.76381 59.81468 14298 ft 148 kts 243°
2026-04-14 14:27 38.75935 59.80275 14224 ft 148 kts 243°
2026-04-14 14:27 38.75490 59.79081 14155 ft 149 kts 243°
2026-04-14 14:27 38.75042 59.77884 14088 ft 149 kts 243°
2026-04-14 14:28 38.74595 59.76687 14016 ft 149 kts 243°
2026-04-14 14:28 38.74147 59.75488 13944 ft 149 kts 243°
2026-04-14 14:28 38.73698 59.74287 13877 ft 149 kts 243°
2026-04-14 14:28 38.73249 59.73088 13800 ft 150 kts 243°
2026-04-14 14:29 38.72799 59.71885 13724 ft 150 kts 243°
2026-04-14 14:29 38.72349 59.70685 13642 ft 150 kts 244°
2026-04-14 14:29 38.71899 59.69483 13560 ft 150 kts 244°
2026-04-14 14:29 38.71448 59.68281 13474 ft 150 kts 244°
2026-04-14 14:30 38.70998 59.67080 13402 ft 150 kts 244°
2026-04-14 14:30 38.70548 59.65879 13326 ft 150 kts 244°
2026-04-14 14:30 38.70097 59.64678 13245 ft 150 kts 244°
2026-04-14 14:30 38.69645 59.63475 13169 ft 150 kts 244°
2026-04-14 14:31 38.69194 59.62272 13087 ft 150 kts 244°
2026-04-14 14:31 38.68742 59.61071 13008 ft 150 kts 244°
2026-04-14 14:31 38.68291 59.59871 12930 ft 150 kts 244°
2026-04-14 14:31 38.67840 59.58671 12851 ft 149 kts 244°
2026-04-14 14:32 38.67395 59.57486 12773 ft 149 kts 244°
2026-04-14 14:32 38.66944 59.56289 12694 ft 149 kts 244°
2026-04-14 14:32 38.66494 59.55091 12616 ft 149 kts 245°
2026-04-14 14:32 38.66043 59.53896 12531 ft 149 kts 245°
2026-04-14 14:33 38.65593 59.52699 12459 ft 149 kts 245°
2026-04-14 14:33 38.65142 59.51504 12380 ft 149 kts 245°
2026-04-14 14:33 38.64692 59.50310 12307 ft 149 kts 245°
2026-04-14 14:33 38.64242 59.49119 12225 ft 149 kts 245°
2026-04-14 14:34 38.63350 59.46754 12072 ft 149 kts 245°
2026-04-14 14:34 38.62904 59.45573 12055 ft 146 kts 245°
2026-04-14 14:34 38.62468 59.44417 12055 ft 143 kts 245°
2026-04-14 14:35 38.62038 59.43280 12055 ft 141 kts 245°
2026-04-14 14:35 38.61612 59.42154 12055 ft 140 kts 245°
2026-04-14 14:35 38.61190 59.41038 12050 ft 139 kts 245°
2026-04-14 14:35 38.60768 59.39923 12048 ft 139 kts 245°
2026-04-14 14:36 38.60349 59.38816 12052 ft 138 kts 245°
2026-04-14 14:36 38.59931 59.37711 12048 ft 138 kts 245°
2026-04-14 14:36 38.59500 59.36612 12048 ft 138 kts 242°
2026-04-14 14:36 38.58948 59.35598 12048 ft 139 kts 237°
2026-04-14 14:37 38.58383 59.34600 12048 ft 138 kts 237°
2026-04-14 14:37 38.57818 59.33601 12048 ft 139 kts 237°
2026-04-14 14:37 38.57261 59.32616 12047 ft 139 kts 237°
2026-04-14 14:37 38.56694 59.31614 12049 ft 139 kts 237°
2026-04-14 14:38 38.56127 59.30613 12049 ft 139 kts 237°
2026-04-14 14:38 38.55560 59.29613 12050 ft 139 kts 237°
2026-04-14 14:38 38.54991 59.28609 12049 ft 139 kts 237°
2026-04-14 14:38 38.54422 59.27604 12050 ft 139 kts 237°
2026-04-14 14:39 38.53853 59.26601 12048 ft 139 kts 237°
2026-04-14 14:39 38.53284 59.25599 12050 ft 139 kts 237°
2026-04-14 14:39 38.52717 59.24599 12046 ft 139 kts 237°
2026-04-14 14:39 38.52153 59.23605 12045 ft 138 kts 237°
2026-04-14 14:40 38.51589 59.22611 12047 ft 138 kts 237°
2026-04-14 14:40 38.51032 59.21631 12044 ft 138 kts 237°
2026-04-14 14:40 38.50469 59.20640 12047 ft 138 kts 237°
2026-04-14 14:40 38.49906 59.19649 12047 ft 138 kts 237°
2026-04-14 14:41 38.49341 59.18653 12047 ft 138 kts 237°
2026-04-14 14:41 38.48776 59.17661 12048 ft 138 kts 238°
2026-04-14 14:41 38.48197 59.16677 12044 ft 140 kts 233°
2026-04-14 14:41 38.47476 59.15834 12045 ft 142 kts 225°
2026-04-14 14:42 38.46709 59.15041 12045 ft 142 kts 225°
2026-04-14 14:42 38.45942 59.14248 12042 ft 142 kts 225°
2026-04-14 14:42 38.45174 59.13455 12044 ft 142 kts 225°
2026-04-14 14:42 38.44408 59.12664 12043 ft 142 kts 225°
2026-04-14 14:43 38.43644 59.11874 12043 ft 141 kts 225°
2026-04-14 14:43 38.42879 59.11085 12042 ft 141 kts 225°
2026-04-14 14:43 38.42115 59.10296 12046 ft 141 kts 225°
2026-04-14 14:43 38.41360 59.09517 12045 ft 141 kts 225°
2026-04-14 14:44 38.40595 59.08728 12048 ft 141 kts 226°
2026-04-14 14:44 38.39832 59.07941 12046 ft 141 kts 226°
2026-04-14 14:44 38.39069 59.07154 12041 ft 141 kts 225°
2026-04-14 14:44 38.38301 59.06361 11989 ft 144 kts 225°
2026-04-14 14:45 38.37513 59.05548 11913 ft 147 kts 225°
2026-04-14 14:45 38.36714 59.04725 11836 ft 148 kts 225°
2026-04-14 14:45 38.35907 59.03894 11760 ft 149 kts 225°
2026-04-14 14:45 38.35098 59.03062 11683 ft 150 kts 225°
2026-04-14 14:46 38.34286 59.02227 11604 ft 150 kts 225°
2026-04-14 14:46 38.33475 59.01392 11530 ft 150 kts 225°
2026-04-14 14:46 38.32670 59.00564 11448 ft 147 kts 225°
2026-04-14 14:46 38.31881 58.99753 11367 ft 145 kts 225°
2026-04-14 14:47 38.31102 58.98951 11269 ft 144 kts 225°
2026-04-14 14:47 38.30327 58.98154 11170 ft 143 kts 225°
2026-04-14 14:47 38.29553 58.97359 11072 ft 142 kts 225°
2026-04-14 14:47 38.28784 58.96568 10970 ft 142 kts 225°
2026-04-14 14:48 38.28017 58.95781 10870 ft 141 kts 225°
2026-04-14 14:48 38.27262 58.95005 10755 ft 139 kts 225°
2026-04-14 14:48 38.26511 58.94235 10632 ft 138 kts 225°
2026-04-14 14:48 38.25773 58.93477 10505 ft 138 kts 225°
2026-04-14 14:49 38.25025 58.92710 10362 ft 139 kts 225°
2026-04-14 14:49 38.24272 58.91937 10216 ft 139 kts 225°
2026-04-14 14:49 38.23519 58.91166 10070 ft 139 kts 225°
2026-04-14 14:49 38.22763 58.90391 9921 ft 140 kts 225°
2026-04-14 14:50 38.22006 58.89616 9768 ft 140 kts 225°
2026-04-14 14:50 38.21247 58.88838 9607 ft 140 kts 225°
2026-04-14 14:50 38.20488 58.88060 9445 ft 140 kts 225°
2026-04-14 14:50 38.19728 58.87282 9285 ft 140 kts 225°
2026-04-14 14:51 38.18967 58.86503 9129 ft 140 kts 226°
2026-04-14 14:51 38.18205 58.85724 8962 ft 141 kts 226°
2026-04-14 14:51 38.17443 58.84944 8813 ft 141 kts 226°
2026-04-14 14:51 38.16681 58.84165 8658 ft 141 kts 226°
2026-04-14 14:52 38.15917 58.83384 8498 ft 141 kts 226°
2026-04-14 14:52 38.15153 58.82602 8348 ft 141 kts 226°
2026-04-14 14:52 38.14388 58.81821 8193 ft 141 kts 226°
2026-04-14 14:52 38.13623 58.81039 8038 ft 141 kts 226°
2026-04-14 14:53 38.12854 58.80254 7885 ft 142 kts 226°
2026-04-14 14:53 38.12091 58.79475 7737 ft 142 kts 226°
2026-04-14 14:53 38.11319 58.78686 7584 ft 143 kts 226°
2026-04-14 14:53 38.10544 58.77896 7434 ft 142 kts 226°
2026-04-14 14:54 38.09772 58.77108 7287 ft 142 kts 226°
2026-04-14 14:54 38.09001 58.76322 7137 ft 142 kts 226°
2026-04-14 14:54 38.08227 58.75533 6991 ft 143 kts 226°
2026-04-14 14:54 38.07451 58.74741 6846 ft 143 kts 226°
2026-04-14 14:55 38.06673 58.73948 6700 ft 144 kts 226°
2026-04-14 14:55 38.05893 58.73154 6543 ft 144 kts 226°
2026-04-14 14:55 38.05112 58.72360 6449 ft 142 kts 226°
2026-04-14 14:55 38.04338 58.71571 6281 ft 144 kts 226°
2026-04-14 14:56 38.02756 58.69960 5894 ft 148 kts 226°
2026-04-14 14:56 38.01956 58.69146 5700 ft 147 kts 226°
2026-04-14 14:56 38.01157 58.68332 5507 ft 147 kts 225°
2026-04-14 14:57 38.00356 58.67517 5311 ft 148 kts 225°
2026-04-14 14:57 37.99551 58.66700 5116 ft 148 kts 225°
2026-04-14 14:57 37.98750 58.65887 4926 ft 148 kts 225°
2026-04-14 14:57 37.97943 58.65066 4724 ft 149 kts 225°
2026-04-14 14:58 37.97131 58.64241 4525 ft 150 kts 226°
2026-04-14 14:58 37.96318 58.63416 4331 ft 149 kts 226°
2026-04-14 14:58 37.95506 58.62592 4135 ft 150 kts 225°
2026-04-14 14:58 37.94700 58.61773 3938 ft 151 kts 225°
2026-04-14 14:59 37.93900 58.60905 3734 ft 151 kts 233°
2026-04-14 14:59 37.93339 58.59805 3541 ft 147 kts 252°
2026-04-14 14:59 37.93040 58.58578 3343 ft 145 kts 258°
2026-04-14 14:59 37.92767 58.57356 3153 ft 144 kts 258°
2026-04-14 15:00 37.92499 58.56136 2962 ft 144 kts 258°
2026-04-14 15:00 37.92228 58.54916 2774 ft 144 kts 258°
2026-04-14 15:00 37.91996 58.53689 2569 ft 142 kts 268°
2026-04-14 15:00 37.92084 58.52498 2495 ft 131 kts 287°
2026-04-14 15:01 37.92440 58.51480 2499 ft 123 kts 295°
2026-04-14 15:01 37.92834 58.50509 2498 ft 124 kts 297°
2026-04-14 15:01 37.93241 58.49550 2495 ft 123 kts 297°
2026-04-14 15:01 37.93651 58.48603 2501 ft 123 kts 298°
2026-04-14 15:02 37.94073 58.47656 2411 ft 124 kts 298°
2026-04-14 15:02 37.94477 58.46744 2263 ft 114 kts 300°
2026-04-14 15:02 37.94849 58.45912 2116 ft 106 kts 301°
2026-04-14 15:02 37.95215 58.45094 1971 ft 107 kts 299°
2026-04-14 15:03 37.95574 58.44288 1823 ft 104 kts 300°
2026-04-14 15:03 37.95921 58.43504 1697 ft 97 kts 302°
2026-04-14 15:03 37.96231 58.42806 1559 ft 89 kts 300°
2026-04-14 15:03 37.96534 58.42130 1450 ft 86 kts 302°
2026-04-14 15:04 37.96831 58.41501 1342 ft 81 kts 302°
2026-04-14 15:04 37.97103 58.40868 1212 ft 83 kts 301°
2026-04-14 15:04 37.97399 58.40243 1107 ft 81 kts 299°
2026-04-14 15:04 37.97655 58.39619 1010 ft 77 kts 302°
2026-04-14 15:05 37.97933 58.39033 902 ft 79 kts 294°
2026-04-14 15:05 37.98197 58.38414 793 ft 77 kts 296°
2026-04-14 15:05 37.98454 58.37838 682 ft 73 kts 295°
2026-04-14 15:05 37.98685 58.37314 675 ft 62 kts 297°
2026-04-14 15:06 37.98835 58.36978 674 ft 25 kts 302°
2026-04-14 15:06 37.98903 58.36832 672 ft 16 kts 301°
2026-04-14 15:06 37.98893 58.36761 672 ft 8 kts 230°
2026-04-14 15:06 37.98855 58.36727 672 ft 8 kts 210°
2026-04-14 15:07 37.98795 58.36684 673 ft 6 kts 209°
2026-04-14 15:07 37.98790 58.36680 672 ft 0 kts 213°
2026-04-14 15:07 37.98765 58.36669 672 ft 9 kts 194°
2026-04-14 15:08 37.98681 58.36638 672 ft 14 kts 208°
2026-04-14 15:08 37.98588 58.36572 672 ft 15 kts 208°
2026-04-14 15:08 37.98494 58.36508 672 ft 15 kts 211°
2026-04-14 15:08 37.98400 58.36441 672 ft 15 kts 206°
2026-04-14 15:09 37.98306 58.36373 672 ft 16 kts 214°
2026-04-14 15:09 37.98212 58.36303 672 ft 16 kts 211°
2026-04-14 15:09 37.98127 58.36307 672 ft 13 kts 132°
2026-04-14 15:09 37.98065 58.36444 672 ft 22 kts 119°
2026-04-14 15:10 37.98017 58.36556 672 ft 20 kts 114°
2026-04-14 15:10 37.97952 58.36699 672 ft 20 kts 120°
2026-04-14 15:10 37.97882 58.36854 672 ft 19 kts 118°
2026-04-14 15:10 37.97828 58.36982 672 ft 14 kts 116°
2026-04-14 15:11 37.97759 58.37134 672 ft 21 kts 118°
2026-04-14 15:11 37.97692 58.37285 672 ft 19 kts 118°
2026-04-14 15:11 37.97628 58.37427 672 ft 18 kts 121°
2026-04-14 15:11 37.97563 58.37498 672 ft 10 kts 179°
2026-04-14 15:12 37.97489 58.37513 672 ft 14 kts 130°
2026-04-14 15:12 37.97428 58.37642 672 ft 18 kts 116°
2026-04-14 15:12 37.97406 58.37737 672 ft 6 kts 14°
2026-04-14 15:12 37.97451 58.37735 672 ft 8 kts 24°
2026-04-14 15:13 37.97507 58.37774 672 ft 10 kts 28°
2026-04-14 15:13 37.97568 58.37817 672 ft 9 kts 25°
2026-04-14 15:13 37.97597 58.37784 672 ft 9 kts 299°
2026-04-14 15:13 37.97624 58.37723 672 ft 3 kts 298°
2026-04-14 15:14 37.97625 58.37720 672 ft 0 kts 299°